SFJ97 RJFK-RJFR

Flight info

Callsign SFJ97
Flight time N/A
Altitude 19000
Route SASIK KUE RISBI/N0379F180 ASARI
Aircraft A21N/M-SDE3FGHIRWY/LB1

Departure

Time 2026-04-28 14:39
Airport Kagoshima Airport (RJFK)

Arrival

Time N/A
Airport Kitakyushu Airport (RJFR)
Time Latitude Longitude Altitude Speed Heading
2026-04-28 14:17 31.80171 130.71660 889 ft 0 kts 240°
2026-04-28 14:31 31.80171 130.71661 889 ft 1 kts 240°
2026-04-28 14:31 31.80178 130.71675 889 ft 2 kts 240°
2026-04-28 14:31 31.80186 130.71690 889 ft 2 kts 240°
2026-04-28 14:32 31.80193 130.71706 889 ft 2 kts 240°
2026-04-28 14:32 31.80200 130.71721 889 ft 2 kts 240°
2026-04-28 14:32 31.80208 130.71736 889 ft 2 kts 240°
2026-04-28 14:32 31.80219 130.71759 889 ft 2 kts 240°
2026-04-28 14:33 31.80229 130.71780 889 ft 1 kts 241°
2026-04-28 14:33 31.80240 130.71786 889 ft 0 kts 149°
2026-04-28 14:33 31.80245 130.71782 889 ft 0 kts 150°
2026-04-28 14:35 31.80241 130.71785 889 ft 2 kts 149°
2026-04-28 14:35 31.80206 130.71808 889 ft 10 kts 152°
2026-04-28 14:35 31.80126 130.71860 888 ft 13 kts 150°
2026-04-28 14:35 31.80037 130.71921 885 ft 15 kts 150°
2026-04-28 14:36 31.79937 130.71986 882 ft 17 kts 151°
2026-04-28 14:36 31.79828 130.72057 880 ft 18 kts 149°
2026-04-28 14:36 31.79712 130.72134 877 ft 20 kts 151°
2026-04-28 14:36 31.79583 130.72217 872 ft 21 kts 148°
2026-04-28 14:37 31.79447 130.72317 865 ft 24 kts 151°
2026-04-28 14:37 31.79299 130.72418 861 ft 24 kts 150°
2026-04-28 14:37 31.79147 130.72528 855 ft 25 kts 133°
2026-04-28 14:37 31.79138 130.72638 853 ft 0 kts 65°
2026-04-28 14:38 31.79154 130.72676 852 ft 15 kts 61°
2026-04-28 14:38 31.79236 130.72684 854 ft 2 kts 329°
2026-04-28 14:38 31.79243 130.72679 854 ft 4 kts 329°
2026-04-28 14:38 31.79473 130.72517 862 ft 78 kts 329°
2026-04-28 14:39 31.80158 130.72054 884 ft 146 kts 329°
2026-04-28 14:39 31.81193 130.71373 1036 ft 189 kts 330°
2026-04-28 14:39 31.82420 130.70595 1488 ft 211 kts 330°
2026-04-28 14:39 31.83886 130.69931 1981 ft 242 kts 340°